Concordia, KS

4:54 AM CST on February 22, 2017 (GMT -0600)
Blosser Municipal

Weather History for KCNK - January, 2013

Change the Weather History Date:

Wednesday, January 2, 2013

  Actual Average Record
Temperature  
Mean Temperature 21 °F 28 °F  
Max Temperature 33 °F 38 °F 69 °F (1939)
Min Temperature 9 °F 19 °F -12 °F (1887)
Degree Days  
Heating Degree Days 44 37  
Month to date heating degree days 92 74  
Since 1 July heating degree days 2119 2251  
Cooling Degree Days 0 0  
Month to date cooling degree days 0 0  
Year to date cooling degree days 0 0  
Moisture  
Dew Point 18 °F    
Average Humidity 80    
Maximum Humidity 88    
Minimum Humidity 72    
Precipitation  
Precipitation T in 0.01 in 0.32 in (1947)
Month to date precipitation T 0.03  
Year to date precipitation T 0.03  
Snow  
Snow 0.00 in 0.10 in 3.80 in (1975)
Month to date snowfall 0.3  
Year to date snowfall 0.3  
Since 1 July snowfall 8.5 6.8  
Snow Depth -    
Sea Level Pressure  
Sea Level Pressure 30.22 in    
Wind  
Wind Speed 9 mph (West)    
Max Wind Speed 18 mph    
Max Gust Speed 22 mph    
Visibility 10 miles    
Events Snow    
T = Trace of Precipitation, MM = Missing Value Source: NWS Daily Summary

Daily Weather History Graph

Daily Weather History Graph

Search for Another Location

Airport or City:

Trip Planner

Search our weather history database for the weather conditions in past years. The results will help you decide how hot, cold, wet, or windy it might be!

Date:

Astronomy

Jan. 02, 2013 Rise Set
Actual Time 7:51 AM CST 5:18 PM CST
Civil Twilight 7:21 AM CST 5:48 PM CST
Nautical Twilight 6:47 AM CST 6:22 PM CST
Astronomical Twilight 6:14 AM CST 6:55 PM CST
Moon 10:51 PM CST (1/2) 10:35 AM CST (1/2)
Length of Visible Light 10h 27m
Length of Day
9h 27m
Waning Gibbous, 75% of the Moon is Illuminated
Jan 2
Waning Gibbous
Jan 4
Last Quarter
Jan 11
New
Jan 18
First Quarter
Jan 26
Full

Hourly Weather History & Observations

Time (CST) Temp. Windchill Dew Point Humidity Pressure Visibility Wind Dir Wind Speed Gust Speed Precip Events Conditions
12:55 AM 18.0 °F 3.6 °F 12.9 °F 81% 30.24 in 10.0 mi WSW 15.0 mph - N/A   Clear
1:55 AM 18.0 °F 3.6 °F 12.9 °F 81% 30.21 in 10.0 mi WSW 15.0 mph - N/A   Clear
2:55 AM 18.0 °F 3.6 °F 12.9 °F 81% 30.20 in 10.0 mi WSW 15.0 mph - N/A   Clear
3:55 AM 16.0 °F 2.3 °F 10.9 °F 81% 30.19 in 10.0 mi West 12.7 mph - N/A   Clear
4:55 AM 14.0 °F -0.2 °F 9.0 °F 80% 30.17 in 10.0 mi WSW 12.7 mph - N/A   Clear
5:55 AM 14.0 °F 0.5 °F 8.1 °F 77% 30.17 in 10.0 mi WSW 11.5 mph - N/A   Clear
6:55 AM 10.9 °F -1.8 °F 6.1 °F 81% 30.16 in 10.0 mi WSW 9.2 mph - N/A   Clear
7:55 AM 9.0 °F -3.2 °F 3.9 °F 80% 30.16 in 10.0 mi WSW 8.1 mph - N/A   Clear
8:55 AM 10.9 °F -3.4 °F 3.9 °F 73% 30.19 in 10.0 mi West 11.5 mph - N/A   Clear
9:55 AM 14.0 °F 3.9 °F 6.1 °F 71% 30.22 in 10.0 mi West 6.9 mph - N/A   Clear
10:55 AM 19.0 °F 8.2 °F 12.0 °F 74% 30.22 in 10.0 mi WNW 9.2 mph - N/A   Overcast
11:55 AM 23.0 °F 12.4 °F 17.1 °F 78% 30.20 in 6.0 mi West 10.4 mph - 0.00 in Snow Light Snow
12:55 PM 27.0 °F 20.5 °F 21.9 °F 81% 30.18 in 8.0 mi West 5.8 mph - 0.00 in   Overcast
1:55 PM 30.0 °F 22.4 °F 24.1 °F 79% 30.17 in 10.0 mi West 8.1 mph - N/A   Partly Cloudy
2:55 PM 30.9 °F 24.3 °F 24.1 °F 76% 30.17 in 10.0 mi West 6.9 mph - N/A   Clear
3:55 PM 30.0 °F 22.4 °F 23.0 °F 75% 30.19 in 10.0 mi WSW 8.1 mph - N/A   Partly Cloudy
4:55 PM 30.9 °F 23.5 °F 25.0 °F 79% 30.21 in 10.0 mi WSW 8.1 mph - N/A   Overcast
5:55 PM 32.0 °F 25.6 °F 26.1 °F 79% 30.22 in 10.0 mi WSW 6.9 mph - N/A   Overcast
6:42 PM 32.0 °F 24.2 °F 26.6 °F 80% 30.19 in 10.0 mi WNW 9.2 mph - N/A   Overcast
6:55 PM 33.1 °F 26.1 °F 27.0 °F 78% 30.26 in 10.0 mi WNW 8.1 mph - N/A   Overcast
7:06 PM 33.8 °F 27.7 °F 26.6 °F 75% 30.20 in 10.0 mi WNW 6.9 mph - N/A   Overcast
7:55 PM 33.1 °F 26.9 °F 26.1 °F 75% 30.28 in 10.0 mi WNW 6.9 mph - N/A   Overcast
8:55 PM 30.9 °F 26.2 °F 25.0 °F 79% 30.29 in 10.0 mi WNW 4.6 mph - N/A   Overcast
9:55 PM 28.0 °F 22.8 °F 23.0 °F 81% 30.29 in 10.0 mi WSW 4.6 mph - N/A   Mostly Cloudy
10:55 PM 24.1 °F 17.0 °F 21.0 °F 88% 30.30 in 10.0 mi West 5.8 mph - N/A   Mostly Cloudy
11:55 PM 26.1 °F 18.4 °F 21.0 °F 81% 30.31 in 10.0 mi West 6.9 mph - N/A   Clear